When you browse on this site, cookies collect data to enhance your experience and personalize the content and advertising you see.
Visit our Privacy Policy to learn more. By continuing to use the site, you agree to this use of cookies and data.

Hourly Weather Kranevo

Today, 13 July, Monday

Time Temperature Precipitation Wind Pressure Humidity
00:00 +20°C° 0 mm 7 mps 755 mmHg 75%
01:00 +17°C° 0 mm 8 mps 755 mmHg 79%
02:00 +16°C° 0 mm 9 mps 755 mmHg 82%
03:00 +15°C° 0 mm 8 mps 755 mmHg 82%
04:00 +15°C° 0 mm 8 mps 756 mmHg 82%
05:00 +15°C° 0 mm 8 mps 756 mmHg 82%
06:00 +15°C° 0 mm 8 mps 756 mmHg 81%
07:00 +15°C° 0 mm 8 mps 756 mmHg 80%
08:00 +16°C° 0 mm 8 mps 756 mmHg 79%
09:00 +16°C° 0 mm 8 mps 757 mmHg 78%
10:00 +16°C° 0 mm 8 mps 757 mmHg 77%
11:00 +16°C° 0 mm 8 mps 757 mmHg 76%
12:00 +17°C° 0 mm 8 mps 757 mmHg 70%
13:00 +20°C° 0 mm 8 mps 757 mmHg 65%
14:00 +21°C° 0 mm 8 mps 757 mmHg 59%
15:00 +21°C° 0 mm 8 mps 757 mmHg 57%
16:00 +22°C° 0 mm 7 mps 756 mmHg 54%
17:00 +22°C° 0 mm 7 mps 756 mmHg 52%
18:00 +21°C° 0 mm 6 mps 756 mmHg 58%
19:00 +20°C° 0 mm 6 mps 756 mmHg 64%
20:00 +17°C° 0 mm 5 mps 756 mmHg 69%
21:00 +16°C° 0 mm 5 mps 756 mmHg 73%
22:00 +15°C° 0 mm 5 mps 757 mmHg 77%
23:00 +14°C° 0 mm 5 mps 757 mmHg 81%

Tomorrow, 14 July, Tuesday

Time Temperature Precipitation Wind Pressure Humidity
00:00 +14°C° 0 mm 5 mps 757 mmHg 83%
01:00 +14°C° 0 mm 5 mps 757 mmHg 85%
02:00 +13°C° 0 mm 5 mps 757 mmHg 88%
03:00 +13°C° 0 mm 5 mps 757 mmHg 87%
04:00 +13°C° 0 mm 5 mps 757 mmHg 86%
05:00 +12°C° 0 mm 5 mps 757 mmHg 86%
06:00 +15°C° 0 mm 5 mps 757 mmHg 77%
07:00 +17°C° 0 mm 5 mps 757 mmHg 68%
08:00 +20°C° 0 mm 5 mps 758 mmHg 58%
09:00 +21°C° 0 mm 4 mps 757 mmHg 53%
10:00 +23°C° 0 mm 4 mps 757 mmHg 47%
11:00 +25°C° 0 mm 4 mps 757 mmHg 41%
12:00 +26°C° 0 mm 4 mps 757 mmHg 40%
13:00 +26°C° 0 mm 4 mps 757 mmHg 39%
14:00 +27°C° 0 mm 4 mps 757 mmHg 38%
15:00 +26°C° 0 mm 4 mps 756 mmHg 42%
16:00 +25°C° 0 mm 4 mps 756 mmHg 45%
17:00 +25°C° 0 mm 4 mps 756 mmHg 49%
18:00 +22°C° 0 mm 3 mps 756 mmHg 55%
19:00 +20°C° 0 mm 2 mps 756 mmHg 60%
20:00 +19°C° 0 mm 2 mps 757 mmHg 66%
21:00 +18°C° 0 mm 2 mps 757 mmHg 68%
22:00 +18°C° 0 mm 2 mps 757 mmHg 69%
23:00 +18°C° 0 mm 1 mps 757 mmHg 71%

Day after tomorrow, 15 July, Wednesday

Time Temperature Precipitation Wind Pressure Humidity
00:00 +17°C° 0 mm 2 mps 757 mmHg 72%
01:00 +17°C° 0 mm 2 mps 757 mmHg 72%
02:00 +16°C° 0 mm 2 mps 757 mmHg 73%
03:00 +16°C° 0 mm 2 mps 757 mmHg 73%
04:00 +16°C° 0 mm 2 mps 757 mmHg 74%
05:00 +16°C° 0 mm 2 mps 757 mmHg 74%
06:00 +18°C° 0 mm 2 mps 757 mmHg 67%
07:00 +20°C° 0 mm 2 mps 757 mmHg 60%
08:00 +23°C° 0 mm 2 mps 758 mmHg 53%
09:00 +25°C° 0 mm 3 mps 757 mmHg 49%
10:00 +26°C° 0 mm 3 mps 757 mmHg 46%
11:00 +27°C° 0 mm 3 mps 757 mmHg 42%
12:00 +27°C° 0 mm 3 mps 757 mmHg 42%
13:00 +27°C° 0 mm 4 mps 757 mmHg 42%
14:00 +27°C° 0 mm 4 mps 757 mmHg 41%
15:00 +27°C° 0 mm 4 mps 757 mmHg 42%
16:00 +27°C° 0 mm 4 mps 756 mmHg 43%
17:00 +26°C° 0 mm 3 mps 756 mmHg 44%
18:00 +25°C° 0 mm 3 mps 756 mmHg 50%
19:00 +22°C° 0 mm 3 mps 756 mmHg 56%
20:00 +20°C° 0 mm 2 mps 756 mmHg 62%
21:00 +19°C° 0 mm 2 mps 756 mmHg 64%
22:00 +19°C° 0 mm 2 mps 756 mmHg 65%
23:00 +19°C° 0 mm 1 mps 756 mmHg 67%

16 July, Thursday

Time Temperature Precipitation Wind Pressure Humidity
00:00 +19°C° 0 mm 1 mps 756 mmHg 68%
01:00 +19°C° 0 mm 1 mps 756 mmHg 69%
02:00 +18°C° 0 mm 1 mps 756 mmHg 70%
03:00 +18°C° 0 mm 1 mps 756 mmHg 71%
04:00 +18°C° 0 mm 1 mps 755 mmHg 71%
05:00 +18°C° 0 mm 1 mps 755 mmHg 72%
06:00 +19°C° 0 mm 2 mps 755 mmHg 66%
07:00 +21°C° 0 mm 2 mps 755 mmHg 60%
08:00 +24°C° 0 mm 2 mps 755 mmHg 53%
09:00 +25°C° 0 mm 2 mps 755 mmHg 49%
10:00 +26°C° 0 mm 3 mps 755 mmHg 45%
11:00 +27°C° 0 mm 3 mps 755 mmHg 41%
12:00 +28°C° 0 mm 3 mps 755 mmHg 40%
13:00 +28°C° 0 mm 4 mps 754 mmHg 39%
14:00 +28°C° 0 mm 4 mps 754 mmHg 38%
15:00 +28°C° 0 mm 4 mps 754 mmHg 41%
16:00 +27°C° 0 mm 4 mps 754 mmHg 44%
17:00 +27°C° 0 mm 4 mps 753 mmHg 47%
18:00 +25°C° 0 mm 3 mps 753 mmHg 54%
19:00 +22°C° 0 mm 3 mps 754 mmHg 61%
20:00 +20°C° 0 mm 2 mps 754 mmHg 68%
21:00 +20°C° 0 mm 2 mps 754 mmHg 71%
22:00 +20°C° 0 mm 1 mps 754 mmHg 74%
23:00 +19°C° 0 mm 1 mps 754 mmHg 78%

17 July, Friday

Time Temperature Precipitation Wind Pressure Humidity
00:00 +19°C° 0 mm 1 mps 754 mmHg 79%
01:00 +19°C° 0 mm 1 mps 754 mmHg 80%
02:00 +19°C° 0 mm 1 mps 753 mmHg 81%
03:00 +18°C° 0 mm 1 mps 753 mmHg 81%
04:00 +17°C° 0 mm 2 mps 753 mmHg 82%
05:00 +17°C° 0 mm 2 mps 753 mmHg 82%
06:00 +19°C° 0 mm 2 mps 753 mmHg 74%
07:00 +23°C° 0 mm 2 mps 754 mmHg 67%
08:00 +25°C° 0 mm 2 mps 754 mmHg 60%
09:00 +26°C° 0 mm 3 mps 754 mmHg 55%
10:00 +27°C° 0 mm 3 mps 754 mmHg 50%
11:00 +28°C° 0 mm 4 mps 754 mmHg 45%
12:00 +29°C° 0 mm 4 mps 754 mmHg 44%
13:00 +29°C° 0 mm 4 mps 753 mmHg 43%
14:00 +30°C° 0 mm 4 mps 753 mmHg 41%
15:00 +29°C° 0 mm 4 mps 753 mmHg 43%
16:00 +29°C° 0 mm 5 mps 753 mmHg 44%
17:00 +28°C° 0 mm 5 mps 753 mmHg 45%
18:00 +26°C° 0 mm 4 mps 753 mmHg 54%
19:00 +23°C° 0 mm 4 mps 753 mmHg 62%
20:00 +21°C° 0 mm 4 mps 753 mmHg 71%
21:00 +21°C° 0 mm 4 mps 753 mmHg 75%
22:00 +20°C° 0 mm 4 mps 753 mmHg 80%
23:00 +20°C° 0 mm 3 mps 753 mmHg 85%

18 July, Saturday

Time Temperature Precipitation Wind Pressure Humidity
00:00 +20°C° 0 mm 3 mps 753 mmHg 86%
01:00 +20°C° 0 mm 3 mps 753 mmHg 86%
02:00 +20°C° 0 mm 3 mps 753 mmHg 87%
03:00 +20°C° 0 mm 3 mps 753 mmHg 86%
04:00 +20°C° 0 mm 3 mps 753 mmHg 86%
05:00 +19°C° 0 mm 3 mps 753 mmHg 85%
06:00 +22°C° 0 mm 4 mps 753 mmHg 77%
07:00 +25°C° 0 mm 4 mps 753 mmHg 69%
08:00 +27°C° 0 mm 5 mps 752 mmHg 60%
09:00 +28°C° 0 mm 5 mps 752 mmHg 54%
10:00 +29°C° 0 mm 5 mps 752 mmHg 48%
11:00 +32°C° 0 mm 6 mps 752 mmHg 42%
12:00 +32°C° 0 mm 6 mps 752 mmHg 41%
13:00 +32°C° 0 mm 6 mps 752 mmHg 40%
14:00 +32°C° 0 mm 7 mps 752 mmHg 39%
15:00 +30°C° 0 mm 7 mps 751 mmHg 43%
16:00 +30°C° 0 mm 6 mps 751 mmHg 46%
17:00 +29°C° 0 mm 6 mps 751 mmHg 50%
18:00 +27°C° 0 mm 6 mps 751 mmHg 59%
19:00 +26°C° 0 mm 5 mps 751 mmHg 68%
20:00 +23°C° 0 mm 5 mps 751 mmHg 76%
21:00 +22°C° 0 mm 4 mps 751 mmHg 81%
22:00 +22°C° 0 mm 4 mps 751 mmHg 85%
23:00 +21°C° 0 mm 4 mps 751 mmHg 89%
Show more